DW6619 Manassas VA US current weather conditions

sailwx.info

Wind from 005 at 1 knots gusting 3

Air temperature -4.4° C
Dewpoint -10.2° C

Last reported at 2020-Jan-21 04:00 UTC.
Time now 2020-Jan-21 05:00 UTC

Location: N 38°45' W 077°28'.
View on Google Maps.

See reports from other nearby stations

  
Tides and Currents Weather Stations Pressure Air Temp Water Temp Dewpoint Dewpoint Depression Visibility Wind Speed Wind Dir Waves Ship Positions
date/time (UTC)wind fromknots sea level pressurealtimeterstation pressurevisibilityair tempwater tempwave heightnotes
2020-Jan-21 04:20 028 -3.9
2020-Jan-21 04:10 034 0 gusting 2 -4.4
2020-Jan-21 04:05 017 0 gusting 2 -4.4
2020-Jan-21 04:00 005 1 gusting 3 -4.4
2020-Jan-21 03:50 033 -4.4
2020-Jan-21 03:45 030 -4.4
2020-Jan-21 03:40 030 0 gusting 2 -4.4
2020-Jan-21 03:35 030 0 gusting 2 -4.4
2020-Jan-21 03:30 041 -4.4
2020-Jan-21 03:25 041 -3.9
2020-Jan-21 03:20 041 0 gusting 2 -4.4
2020-Jan-21 03:15 022 -4.4
2020-Jan-21 03:05 019 -4.4
2020-Jan-21 03:00 048 -4.4
2020-Jan-21 02:55 011 -4.4
2020-Jan-21 02:50 015 -4.4
2020-Jan-21 02:40 019 -4.4
2020-Jan-21 02:35 019 -4.4
2020-Jan-21 02:30 019 -4.4
2020-Jan-21 02:25 019 -4.4
2020-Jan-21 02:20 019 -4.4
2020-Jan-21 02:15 019 -4.4
2020-Jan-21 02:10 019 -3.9
2020-Jan-21 02:00 019 -3.9
2020-Jan-21 01:55 019 -3.9
2020-Jan-21 01:50 019 -3.9
2020-Jan-21 01:40 348 -3.9
2020-Jan-21 01:35 348 -3.9
2020-Jan-21 01:30 348 -3.3
2020-Jan-21 01:25 348 -3.3
2020-Jan-21 01:20 348 -3.3
2020-Jan-21 01:15 348 -3.3
2020-Jan-21 01:10 348 -2.8
2020-Jan-21 01:05 348 -2.8
2020-Jan-21 00:55 348 -2.8
2020-Jan-21 00:50 348 -2.2
2020-Jan-21 00:45 349 -2.2
2020-Jan-21 00:40 351 -2.2
2020-Jan-21 00:30 025 0 gusting 1 -2.2
2020-Jan-21 00:25 017 -1.7
2020-Jan-21 00:20 017 1 gusting 2 -1.7
2020-Jan-21 00:15 022 0 gusting 2 -1.7
2020-Jan-21 00:10 028 0 gusting 2 -1.7
2020-Jan-21 00:05 026 0 gusting 3 -1.7
2020-Jan-21 00:00 016 1 gusting 3 -1.7
2020-Jan-20 23:55 339 1 gusting 4 -1.7
2020-Jan-20 23:50 360 1 gusting 4 -1.7
2020-Jan-20 23:45 039 1 gusting 3 -1.7
2020-Jan-20 23:35 345 -1.7
2020-Jan-20 23:30 019 0 gusting 2 -1.7
2020-Jan-20 23:25 046 0 gusting 2 -1.7
2020-Jan-20 23:20 017 0 gusting 4 -1.7
2020-Jan-20 23:15 043 0 gusting 3 -1.7
2020-Jan-20 23:10 013 1 gusting 3 -1.7
2020-Jan-20 23:05 049 0 gusting 4 -1.7
2020-Jan-20 23:00 018 1 gusting 4 -1.7
2020-Jan-20 22:55 019 1 gusting 3 -1.7
2020-Jan-20 22:45 320 -1.1
2020-Jan-20 22:40 320 0 gusting 1 -1.1
2020-Jan-20 22:35 319 -1.1
2020-Jan-20 22:30 319 0 gusting 1 -1.1
2020-Jan-20 22:25 300 0 gusting 1 -0.6
2020-Jan-20 22:20 013 -0.6
2020-Jan-20 22:10 032 1 gusting 4 -0.6
2020-Jan-20 22:05 020 2 gusting 4 -0.6
2020-Jan-20 22:00 036 1 gusting 3 -0.6
2020-Jan-20 21:55 341 0 gusting 3 -0.0
2020-Jan-20 21:45 044 0 gusting 5 -0.0
2020-Jan-20 21:40 022 0 gusting 6 -0.0
2020-Jan-20 21:35 350 1 gusting 6 -0.0
2020-Jan-20 21:30 022 0 gusting 3 -0.0
2020-Jan-20 21:25 015 0 gusting 6 -0.0
2020-Jan-20 21:20 005 1 gusting 6 -0.0
2020-Jan-20 21:15 040 2 gusting 5 0.6
2020-Jan-20 21:10 355 1 gusting 8 0.6
2020-Jan-20 21:05 102 1 gusting 8 0.6
2020-Jan-20 21:00 048 1 gusting 8 0.6
2020-Jan-20 20:55 025 2 gusting 4 0.6
2020-Jan-20 20:45 009 0 gusting 6 0.6
2020-Jan-20 20:40 014 2 gusting 7 1.1
2020-Jan-20 20:35 344 2 gusting 7 1.1
2020-Jan-20 20:30 017 1 gusting 4 1.1
2020-Jan-20 20:25 005 1 gusting 4 1.1
2020-Jan-20 20:20 011 2 gusting 4 1.1
2020-Jan-20 20:15 005 0 gusting 7 1.1
2020-Jan-20 20:10 030 2 gusting 7 1.7
2020-Jan-20 20:00 342 1 gusting 7 1.7
2020-Jan-20 19:55 343 2 gusting 8 1.7
2020-Jan-20 19:50 044 2 gusting 8 1.7
2020-Jan-20 19:45 034 0 gusting 8 1.7
2020-Jan-20 19:40 056 2 gusting 7 1.7
2020-Jan-20 19:35 035 2 gusting 7 1.7
2020-Jan-20 19:30 018 2 gusting 8 1.7
2020-Jan-20 19:25 042 2 gusting 8 1.7
2020-Jan-20 19:20 018 1 gusting 3 1.7
2020-Jan-20 19:15 061 1 gusting 6 1.7
2020-Jan-20 19:10 033 2 gusting 6 1.7
2020-Jan-20 19:05 090 1 gusting 6 1.7
2020-Jan-20 18:55 030 1 gusting 3 1.7
2020-Jan-20 18:50 159 0 gusting 6 1.7
2020-Jan-20 18:45 081 3 gusting 6 1.7
2020-Jan-20 18:40 046 1 gusting 6 1.7
2020-Jan-20 18:35 284 2 gusting 6 1.7
2020-Jan-20 18:30 020 1 gusting 4 1.7
2020-Jan-20 18:25 012 1 gusting 5 1.7
2020-Jan-20 18:20 041 1 gusting 7 1.7
2020-Jan-20 18:15 321 2 gusting 7 1.7
2020-Jan-20 18:05 011 1 gusting 6 1.1
2020-Jan-20 18:00 064 1 gusting 6 1.1
2020-Jan-20 17:55 010 2 gusting 7 1.1
2020-Jan-20 17:50 301 2 gusting 6 1.1
2020-Jan-20 17:45 340 0 gusting 7 1.1
2020-Jan-20 17:40 017 1 gusting 7 1.1
2020-Jan-20 17:35 005 1 gusting 7 1.1
2020-Jan-20 17:30 341 1 gusting 7 0.6
2020-Jan-20 17:20 036 2 gusting 9 0.6
2020-Jan-20 17:15 042 0 gusting 9 0.6
2020-Jan-20 17:10 288 4 gusting 9 0.6
2020-Jan-20 17:05 350 3 gusting 6 0.6
2020-Jan-20 16:55 071 1 gusting 5 0.6
2020-Jan-20 16:50 314 1 gusting 6 0.6
2020-Jan-20 16:45 021 2 gusting 6 -0.0
2020-Jan-20 16:40 011 1 gusting 5 -0.0
2020-Jan-20 16:30 044 2 gusting 7 -0.0
2020-Jan-20 16:25 005 2 gusting 7 -0.6
2020-Jan-20 16:20 049 2 gusting 7 -0.6
2020-Jan-20 16:15 350 1 gusting 8 -0.6
2020-Jan-20 16:10 035 2 gusting 9 -1.1
2020-Jan-20 16:05 005 3 gusting 9 -1.1
2020-Jan-20 16:00 034 1 gusting 7 -1.7
2020-Jan-20 15:55 036 2 gusting 8 -1.7
2020-Jan-20 15:50 023 2 gusting 9 -1.7
2020-Jan-20 15:40 360 3 gusting 7 -2.2
2020-Jan-20 15:35 033 3 gusting 7 -2.2
2020-Jan-20 15:30 345 2 gusting 7 -2.2
2020-Jan-20 15:25 023 2 gusting 9 -2.2
2020-Jan-20 15:20 031 3 gusting 10 -2.8
2020-Jan-20 15:15 009 5 gusting 10 -2.8
2020-Jan-20 15:10 042 5 gusting 10 -2.8
2020-Jan-20 15:05 042 3 gusting 8 -2.8
2020-Jan-20 14:55 022 2 gusting 7 -3.3
2020-Jan-20 14:50 027 2 gusting 6 -3.3
2020-Jan-20 14:40 048 2 gusting 7 -3.3
2020-Jan-20 14:35 344 3 gusting 7 -3.3
2020-Jan-20 14:30 292 2 gusting 7 -3.9
2020-Jan-20 14:20 360 1 gusting 6 -3.9
2020-Jan-20 14:15 015 2 gusting 6 -3.9
2020-Jan-20 14:10 026 1 gusting 8 -3.9
2020-Jan-20 14:05 023 2 gusting 8 -4.4
2020-Jan-20 13:55 320 1 gusting 4 -4.4
2020-Jan-20 13:50 269 1 gusting 4 -4.4
2020-Jan-20 13:45 328 1 gusting 5 -5.0
2020-Jan-20 13:40 028 1 gusting 6 -5.0
2020-Jan-20 13:30 340 0 gusting 5 -5.0
2020-Jan-20 13:25 036 0 gusting 4 -5.0
2020-Jan-20 13:20 333 1 gusting 4 -5.0
2020-Jan-20 13:10 029 1 gusting 6 -5.6
2020-Jan-20 13:05 013 0 gusting 3 -5.6
2020-Jan-20 13:00 005 0 gusting 6 -5.6
2020-Jan-20 12:55 053 2 gusting 6 -5.6
2020-Jan-20 12:45 355 2 gusting 6 -5.6
2020-Jan-20 12:40 009 1 gusting 4 -5.6
2020-Jan-20 12:35 355 1 gusting 6 -5.6
2020-Jan-20 12:30 101 1 gusting 6 -5.6
2020-Jan-20 12:25 029 1 gusting 4 -5.6
2020-Jan-20 12:15 013 0 gusting 5 -5.6
2020-Jan-20 12:10 306 0 gusting 5 -5.6
2020-Jan-20 12:05 031 1 gusting 5 -5.6
2020-Jan-20 12:00 010 0 gusting 4 -5.6
2020-Jan-20 11:50 038 0 gusting 4 -5.6
2020-Jan-20 11:45 052 0 gusting 5 -5.6
2020-Jan-20 11:40 033 3 gusting 5 -5.6
2020-Jan-20 11:35 241 0 gusting 3 -5.6
2020-Jan-20 11:25 026 0 gusting 4 -5.6
2020-Jan-20 11:20 029 1 gusting 4 -5.6
2020-Jan-20 11:15 340 -5.6
2020-Jan-20 11:10 019 0 gusting 2 -5.6
2020-Jan-20 11:05 027 -5.6
2020-Jan-20 11:00 023 0 gusting 4 -5.6
2020-Jan-20 10:55 037 1 gusting 4 -5.6
2020-Jan-20 10:50 018 0 gusting 2 -5.6
2020-Jan-20 10:40 010 0 gusting 4 -5.6
2020-Jan-20 10:35 338 0 gusting 8 -5.6
2020-Jan-20 10:30 306 2 gusting 4 -5.6
2020-Jan-20 10:20 311 -5.6
2020-Jan-20 10:15 291 0 gusting 3 -5.6
2020-Jan-20 10:10 313 -5.6
2020-Jan-20 10:05 225 0 gusting 2 -5.6
2020-Jan-20 10:00 022 0 gusting 2 -5.6
2020-Jan-20 09:55 341 0 gusting 3 -5.0
2020-Jan-20 09:50 030 0 gusting 3 -5.0
2020-Jan-20 09:40 046 0 gusting 5 -5.0
2020-Jan-20 09:35 032 1 gusting 5 -5.0
2020-Jan-20 09:30 040 0 gusting 2 -5.0
2020-Jan-20 09:25 036 0 gusting 2 -5.0
2020-Jan-20 09:20 313 0 gusting 2 -5.0
2020-Jan-20 09:15 132 0 gusting 3 -5.0
2020-Jan-20 09:10 044 0 gusting 6 -5.0
2020-Jan-20 09:05 327 1 gusting 6 -5.0
2020-Jan-20 09:00 039 0 gusting 4 -5.0
2020-Jan-20 08:55 020 1 gusting 4 -5.0
2020-Jan-20 08:45 019 1 gusting 7 -5.0
2020-Jan-20 08:40 360 1 gusting 7 -5.0
2020-Jan-20 08:35 348 1 gusting 4 -5.0
2020-Jan-20 08:30 333 0 gusting 4 -5.0
2020-Jan-20 08:25 281 0 gusting 2 -5.0
2020-Jan-20 08:20 058 0 gusting 3 -5.0
2020-Jan-20 08:15 103 0 gusting 3 -5.0
2020-Jan-20 08:05 059 0 gusting 4 -5.0
2020-Jan-20 08:00 285 0 gusting 3 -5.0
2020-Jan-20 07:55 355 0 gusting 3 -5.0
2020-Jan-20 07:50 331 0 gusting 3 -5.0
2020-Jan-20 07:40 056 0 gusting 1 -5.0
2020-Jan-20 07:35 058 0 gusting 3 -5.0
2020-Jan-20 07:30 303 0 gusting 4 -5.0
2020-Jan-20 07:25 060 0 gusting 2 -5.0
2020-Jan-20 07:20 040 0 gusting 3 -4.4
2020-Jan-20 07:15 061 0 gusting 3 -4.4
2020-Jan-20 07:10 063 0 gusting 4 -4.4
2020-Jan-20 07:05 068 0 gusting 4 -4.4
2020-Jan-20 06:55 328 0 gusting 4 -4.4
2020-Jan-20 06:50 339 -4.4
2020-Jan-20 06:45 019 0 gusting 4 -4.4
2020-Jan-20 06:40 302 0 gusting 4 -4.4
2020-Jan-20 06:30 021 1 gusting 5 -4.4
2020-Jan-20 06:25 223 1 gusting 5 -4.4
2020-Jan-20 06:20 086 0 gusting 3 -4.4
2020-Jan-20 06:15 342 1 gusting 3 -4.4
2020-Jan-20 06:05 061 1 gusting 4 -4.4
2020-Jan-20 06:00 057 0 gusting 3 -3.9
2020-Jan-20 05:55 024 0 gusting 4 -3.9
2020-Jan-20 05:50 355 1 gusting 6 -3.9
2020-Jan-20 05:45 009 1 gusting 6 -3.9
2020-Jan-20 05:35 350 1 gusting 5 -3.9
2020-Jan-20 05:30 035 0 gusting 4 -3.9
2020-Jan-20 05:25 023 0 gusting 7 -3.9
2020-Jan-20 05:20 329 0 gusting 7 -3.9
2020-Jan-20 05:15 032 0 gusting 4 -3.9
2020-Jan-20 05:10 017 1 gusting 3 -3.9
2020-Jan-20 05:05 329 1 gusting 3 -3.3
2020-Jan-20 05:00 145 0 gusting 2 -3.3
2020-Jan-20 04:50 148 0 gusting 2 -3.3
2020-Jan-20 04:45 043 0 gusting 5 -3.3
2020-Jan-20 04:40 014 -3.3
2020-Jan-20 04:30 005 0 gusting 5 -3.3
2020-Jan-20 04:25 340 0 gusting 5 -2.8
2020-Jan-20 04:20 032 0 gusting 7 -2.8
2020-Jan-20 04:15 360 1 gusting 7 -2.8
2020-Jan-20 04:10 074 1 gusting 7 -2.8
2020-Jan-20 04:05 340 1 gusting 4 -2.8
2020-Jan-20 04:00 055 1 gusting 4 -2.8
2020-Jan-20 03:55 068 0 gusting 2 -2.8
2020-Jan-20 03:50 295 0 gusting 2 -2.8
2020-Jan-20 03:40 011 1 gusting 5 -2.8
2020-Jan-20 03:35 059 0 gusting 9 -2.2
2020-Jan-20 03:30 281 1 gusting 9 -2.2
2020-Jan-20 03:25 015 0 gusting 3 -2.2
2020-Jan-20 03:20 044 1 gusting 4 -2.2
2020-Jan-20 03:10 325 0 gusting 5 -2.2
2020-Jan-20 03:05 019 0 gusting 4 -2.2
2020-Jan-20 03:00 038 1 gusting 9 -2.2
2020-Jan-20 02:55 360 3 gusting 9 -2.2
2020-Jan-20 02:50 345 0 gusting 3 -1.7
2020-Jan-20 02:45 021 0 gusting 5 -1.7
2020-Jan-20 02:40 348 0 gusting 2 -1.7
2020-Jan-20 02:35 025 0 gusting 2 -1.7
2020-Jan-20 02:25 089 1 gusting 4 -1.7
2020-Jan-20 02:20 098 0 gusting 2 -1.7
2020-Jan-20 02:15 059 0 gusting 8 -1.7
2020-Jan-20 02:10 032 1 gusting 8 -1.7
2020-Jan-20 02:05 094 1 gusting 5 -1.7
2020-Jan-20 01:55 017 1 gusting 8 -1.1
2020-Jan-20 01:45 059 1 gusting 6 -1.1
2020-Jan-20 01:40 349 1 gusting 8 -1.1
2020-Jan-20 01:35 062 1 gusting 6 -1.1
2020-Jan-20 01:30 311 1 gusting 8 -1.1
2020-Jan-20 01:25 329 2 gusting 8 -1.1
2020-Jan-20 01:20 347 1 gusting 6 -1.1
2020-Jan-20 01:15 330 0 gusting 4 -1.1
2020-Jan-20 01:10 021 0 gusting 5 -0.6
2020-Jan-20 01:00 005 1 gusting 8 -0.6
2020-Jan-20 00:55 085 2 gusting 8 -0.6
2020-Jan-20 00:50 242 1 gusting 6 -0.6
2020-Jan-20 00:45 238 1 gusting 3 -0.6
2020-Jan-20 00:40 348 0 gusting 5 -0.6
2020-Jan-20 00:25 061 0 gusting 10 -0.6
2020-Jan-20 00:15 334 0 gusting 8 -0.6
2020-Jan-20 00:10 174 2 gusting 8 -0.6
2020-Jan-20 00:05 014 1 gusting 6 -0.6
2020-Jan-20 00:00 355 0 gusting 2 -0.0
2020-Jan-19 23:55 078 0 gusting 4 -0.0
2020-Jan-19 23:50 040 2 gusting 4 -0.0
2020-Jan-19 23:45 005 0 gusting 4 -0.0
2020-Jan-19 23:40 345 0 gusting 4 -0.0
2020-Jan-19 23:35 037 0 gusting 4 -0.0
2020-Jan-19 23:30 061 0 gusting 3 -0.0
2020-Jan-19 23:25 177 0 gusting 3 -0.0
2020-Jan-19 23:15 205 0 gusting 5 0.6
2020-Jan-19 23:10 039 0 gusting 2 0.6
2020-Jan-19 23:05 345 0 gusting 4 0.6
2020-Jan-19 23:00 336 0 gusting 4 0.6
2020-Jan-19 22:50 116 1 gusting 3 0.6
2020-Jan-19 22:45 325 0 gusting 6 0.6
2020-Jan-19 22:40 326 2 gusting 6 0.6
2020-Jan-19 22:35 020 1 gusting 3 0.6
2020-Jan-19 22:30 323 1 gusting 5 0.6
2020-Jan-19 22:20 018 1 gusting 5 0.6
2020-Jan-19 22:15 026 1 gusting 3 1.1
2020-Jan-19 22:05 034 0 gusting 3 1.1
2020-Jan-19 22:00 345 1 gusting 5 1.1
2020-Jan-19 21:55 050 1 gusting 8 1.1
2020-Jan-19 21:45 185 2 gusting 9 1.1
2020-Jan-19 21:40 017 1 gusting 6 1.7
2020-Jan-19 21:35 036 1 gusting 6 1.7
2020-Jan-19 21:30 019 1 gusting 8 1.7
2020-Jan-19 21:20 057 1 gusting 6 2.2
2020-Jan-19 21:15 022 2 gusting 5 2.2
2020-Jan-19 21:10 031 2 gusting 5 2.2
2020-Jan-19 21:05 013 1 gusting 4 1.7
2020-Jan-19 21:00 032 1 gusting 9 1.7
2020-Jan-19 20:55 036 2 gusting 9 1.7
2020-Jan-19 20:50 053 1 gusting 5 2.2
2020-Jan-19 20:45 062 1 gusting 3 2.2
2020-Jan-19 20:40 040 1 gusting 8 2.2
2020-Jan-19 20:30 094 1 gusting 4 2.8
2020-Jan-19 20:25 289 0 gusting 3 2.8
2020-Jan-19 20:20 226 1 gusting 6 2.8
2020-Jan-19 20:15 040 2 gusting 9 3.3
2020-Jan-19 20:10 342 1 gusting 9 3.3
2020-Jan-19 20:05 255 1 gusting 9 3.9
2020-Jan-19 20:00 303 2 gusting 9 3.9
2020-Jan-19 19:55 313 2 gusting 13 4.4
2020-Jan-19 19:50 167 3 gusting 13 4.4
2020-Jan-19 19:40 013 2 gusting 9 4.4
2020-Jan-19 19:35 048 1 gusting 9 4.4
2020-Jan-19 19:30 027 3 gusting 8 4.4
2020-Jan-19 19:25 015 1 gusting 7 4.4
2020-Jan-19 19:20 335 2 gusting 7 4.4
2020-Jan-19 19:15 360 2 gusting 7 4.4
2020-Jan-19 19:10 342 1 gusting 7 4.4
2020-Jan-19 19:00 355 2 gusting 9 5.0
2020-Jan-19 18:55 078 3 gusting 9 5.6
2020-Jan-19 18:50 005 1 gusting 5 5.6
2020-Jan-19 18:45 342 1 gusting 7 5.6
2020-Jan-19 18:35 342 3 gusting 10 5.0
2020-Jan-19 18:30 038 4 gusting 11 5.6
2020-Jan-19 18:25 040 3 gusting 11 5.0
2020-Jan-19 18:20 038 3 gusting 6 5.0
2020-Jan-19 18:15 013 2 gusting 7 4.4
2020-Jan-19 18:10 126 2 gusting 10 4.4
2020-Jan-19 18:05 017 3 gusting 11 5.0
2020-Jan-19 17:55 317 3 gusting 9 6.1
2020-Jan-19 17:50 041 3 gusting 9 6.7
2020-Jan-19 17:45 360 2 gusting 10 6.7
2020-Jan-19 17:40 059 2 gusting 8 6.7
2020-Jan-19 17:30 284 2 gusting 8 7.2
2020-Jan-19 17:25 039 0 gusting 8 7.2
2020-Jan-19 17:15 015 3 gusting 9 7.2
2020-Jan-19 17:10 208 1 gusting 7 7.2
2020-Jan-19 17:05 071 1 gusting 7 7.2
2020-Jan-19 17:00 286 2 gusting 6 7.2
2020-Jan-19 16:50 048 2 gusting 8 7.2
2020-Jan-19 16:45 360 2 gusting 7 7.2
2020-Jan-19 16:40 338 3 gusting 11 6.7
2020-Jan-19 16:35 347 3 gusting 11 7.2
2020-Jan-19 16:30 032 1 gusting 9 6.7
2020-Jan-19 16:25 248 2 gusting 10 6.7
2020-Jan-19 16:15 040 3 gusting 7 6.7
2020-Jan-19 16:10 360 1 gusting 9 6.7
2020-Jan-19 16:05 355 2 gusting 9 6.1
2020-Jan-19 16:00 067 3 gusting 9 5.6
2020-Jan-19 15:55 355 1 gusting 8 5.6
2020-Jan-19 15:50 030 3 gusting 8 6.1
2020-Jan-19 15:45 029 2 gusting 10 6.1
2020-Jan-19 15:40 005 3 gusting 10 6.1
2020-Jan-19 15:30 055 0 gusting 5 6.1
2020-Jan-19 15:25 005 2 gusting 7 6.1
2020-Jan-19 15:20 015 1 gusting 7 5.6
2020-Jan-19 15:15 014 1 gusting 7 5.6
2020-Jan-19 15:05 297 1 gusting 6 5.6
2020-Jan-19 15:00 017 2 gusting 6 5.0
2020-Jan-19 14:55 021 2 gusting 6 5.0
2020-Jan-19 14:50 034 1 gusting 4 4.4
2020-Jan-19 14:40 009 2 gusting 5 3.9
2020-Jan-19 14:35 011 1 gusting 5 3.9
2020-Jan-19 14:30 042 1 gusting 7 3.9
2020-Jan-19 14:25 313 1 gusting 7 3.9
2020-Jan-19 14:15 023 1 gusting 4 3.9
2020-Jan-19 14:10 053 0 gusting 6 3.9
2020-Jan-19 14:05 019 2 gusting 6 3.9
2020-Jan-19 14:00 005 0 gusting 4 3.9
2020-Jan-19 13:55 040 0 gusting 4 3.9
2020-Jan-19 13:50 028 0 gusting 3 3.3
2020-Jan-19 13:45 327 3.3
2020-Jan-19 13:40 013 3.3
2020-Jan-19 13:35 026 0 gusting 5 3.3
2020-Jan-19 13:25 033 2.8
2020-Jan-19 13:20 059 2.8
2020-Jan-19 13:15 117 2.8
2020-Jan-19 13:10 117 2.8
2020-Jan-19 13:05 117 2.8
2020-Jan-19 13:00 117 2.8
2020-Jan-19 12:55 117 2.8
2020-Jan-19 12:50 172 3.3
2020-Jan-19 12:45 194 3.3
2020-Jan-19 12:40 193 3.3
2020-Jan-19 12:30 194 3.9
2020-Jan-19 12:25 193 3.9
2020-Jan-19 12:20 194 3.9
2020-Jan-19 12:10 193 4.4
2020-Jan-19 12:05 193 4.4
2020-Jan-19 12:00 193 4.4
2020-Jan-19 11:50 193 5.0
2020-Jan-19 11:45 193 5.0
2020-Jan-19 11:40 193 5.0
2020-Jan-19 11:35 193 5.0
2020-Jan-19 11:30 193 5.0
2020-Jan-19 11:25 194 5.0
2020-Jan-19 11:15 194 5.0
2020-Jan-19 11:10 194 5.0
2020-Jan-19 11:05 194 5.0
2020-Jan-19 11:00 194 5.0
2020-Jan-19 10:50 194 5.0
2020-Jan-19 10:45 194 5.0
2020-Jan-19 10:40 194 5.0
2020-Jan-19 10:35 077 0 gusting 2 5.0
2020-Jan-19 10:25 017 5.0
2020-Jan-19 10:20 017 0 gusting 1 5.0
2020-Jan-19 10:15 013 5.0
2020-Jan-19 10:10 013 5.0
2020-Jan-19 10:00 013 0 gusting 2 5.0
2020-Jan-19 09:55 013 0 gusting 2 5.6
2020-Jan-19 09:50 226 0 gusting 2 5.6
2020-Jan-19 09:40 199 2 gusting 4 5.6
2020-Jan-19 09:35 202 1 gusting 3 5.6
2020-Jan-19 09:30 142 0 gusting 1 5.6
2020-Jan-19 09:25 103 5.0
2020-Jan-19 09:20 103 5.0
2020-Jan-19 09:15 103 5.6
2020-Jan-19 09:10 103 5.6
2020-Jan-19 09:05 103 5.6
2020-Jan-19 08:55 103 5.6
2020-Jan-19 08:50 103 5.6
2020-Jan-19 08:40 103 5.6
2020-Jan-19 08:35 103 5.6
2020-Jan-19 08:30 103 5.6
2020-Jan-19 08:25 103 5.6
2020-Jan-19 08:20 103 5.6
2020-Jan-19 08:15 113 5.6
2020-Jan-19 08:10 113 5.6
2020-Jan-19 08:05 078 5.6
2020-Jan-19 08:00 082 0 gusting 2 5.6
2020-Jan-19 07:50 196 1 gusting 6 5.6
2020-Jan-19 07:45 227 1 gusting 8 5.6
2020-Jan-19 07:40 207 2 gusting 8 5.0
2020-Jan-19 07:30 188 1 gusting 5 5.0
2020-Jan-19 07:25 188 1 gusting 8 5.0
2020-Jan-19 07:20 180 1 gusting 8 5.0
2020-Jan-19 07:10 179 2 gusting 7 5.0
2020-Jan-19 07:05 198 1 gusting 7 5.0
2020-Jan-19 07:00 199 2 gusting 7 5.0
2020-Jan-19 06:55 221 2 gusting 6 5.0
2020-Jan-19 06:45 227 1 gusting 7 5.0
2020-Jan-19 06:40 175 2 gusting 6 5.0
2020-Jan-19 06:35 247 2 gusting 6 5.0
2020-Jan-19 06:25 186 2 gusting 6 5.0
2020-Jan-19 06:20 206 2 gusting 9 5.0
2020-Jan-19 06:15 194 2 gusting 9 5.0
2020-Jan-19 06:05 200 1 gusting 6 5.0
2020-Jan-19 05:55 273 3 gusting 7 5.0
2020-Jan-19 05:50 182 2 gusting 7 5.0
2020-Jan-19 05:45 194 2 gusting 7 5.0
2020-Jan-19 05:40 296 4 gusting 7 5.0
2020-Jan-19 05:35 268 2 gusting 7 5.0
2020-Jan-19 05:30 168 3 gusting 7 5.0
2020-Jan-19 05:25 190 3 gusting 6 5.0
2020-Jan-19 05:20 244 3 gusting 7 5.0
2020-Jan-19 05:15 207 2 gusting 7 5.0
2020-Jan-19 05:10 190 3 gusting 12 5.0
2020-Jan-19 05:05 196 3 gusting 12 5.0
2020-Jan-19 05:00 219 1 gusting 7 5.0